Weather History for Weaverville, CA

Change the Weather History Date:

Tuesday, April 1, 2014

  Actual Average (KRDD) Record (KRDD)
Temperature  
Mean Temperature 39 °F -  
Max Temperature 46 °F 67 °F 91 °F (2002)
Min Temperature 32 °F 44 °F 31 °F (1999)
Degree Days  
Heating Degree Days 26    
Cooling Degree Days 0    
Moisture  
Dew Point 34 °F    
Average Humidity 85    
Maximum Humidity 100    
Minimum Humidity 62    
Precipitation  
Precipitation 0.05 in 0.09 in 0.52 in (1996)
Month to date precipitation 0.09  
Year to date precipitation 15.93  
Since 1 July precipitation 29.69  
Sea Level Pressure  
Sea Level Pressure 29.82 in    
Wind  
Wind Speed 1 mph (ENE)    
Max Wind Speed 7 mph    
Max Gust Speed -    
Visibility 8 miles    
Events      
T = Trace of Precipitation, MM = Missing Value Source: NWS Daily Summary

Daily Weather History Graph

Daily Weather History Graph

Search for Another Location

Airport:

Trip Planner

Search our weather history database for the weather conditions in past years. The results will help you decide how hot, cold, wet, or windy it might be!

Date:

Astronomy

Apr. 01, 2014 Rise Set
Actual Time 6:55 AM PDT 7:36 PM PDT
Civil Twilight 6:27 AM PDT 8:04 PM PDT
Nautical Twilight 5:54 AM PDT 8:37 PM PDT
Astronomical Twilight 5:21 AM PDT 9:10 PM PDT
Moon 8:00 AM PDT (4/1) 10:05 PM PDT (4/1)
Length of Visible Light 13h 36m
Length of Day
12h 41m
Waxing Crescent, 5% of the Moon is Illuminated
Apr 1
Waxing Crescent
Apr 7
First Quarter
Apr 15
Full
Apr 22
Last Quarter
Apr 28
New

Hourly Weather History & Observations

Time (PDT) Temp. Windchill Dew Point Humidity Pressure Visibility Wind Dir Wind Speed Gust Speed Precip Events Conditions
12:15 AM 32.0 °F - 32.0 °F 100% 29.79 in 4.0 mi Calm Calm - N/A   Overcast
12:35 AM 33.8 °F - 32.0 °F 93% 29.80 in 0.5 mi Calm Calm - N/A   Overcast
12:55 AM 33.8 °F - 32.0 °F 93% 29.80 in 0.5 mi Calm Calm - N/A   Overcast
1:15 AM 33.8 °F - 32.0 °F 93% 29.80 in 5.0 mi Calm Calm - N/A   Overcast
1:35 AM 33.8 °F - 32.0 °F 93% 29.81 in 2.0 mi Calm Calm - N/A   Overcast
1:55 AM 33.8 °F - 32.0 °F 93% 29.81 in 3.0 mi Calm Calm - N/A   Overcast
2:15 AM 33.8 °F - 32.0 °F 93% 29.81 in 4.0 mi Calm Calm - N/A   Overcast
2:35 AM 33.8 °F - 32.0 °F 93% 29.80 in 5.0 mi Calm Calm - N/A   Mostly Cloudy
2:55 AM 33.8 °F - 32.0 °F 93% 29.80 in 5.0 mi Calm Calm - N/A   Overcast
3:15 AM 33.8 °F - 32.0 °F 93% 29.80 in 4.0 mi Calm Calm - N/A   Overcast
3:35 AM 33.8 °F - 32.0 °F 93% 29.80 in 2.5 mi Calm Calm - N/A   Overcast
3:55 AM 33.8 °F - 32.0 °F 93% 29.80 in 3.0 mi Calm Calm - N/A   Overcast
4:15 AM 35.6 °F - 33.8 °F 93% 29.79 in 2.0 mi Calm Calm - N/A   Overcast
4:35 AM 35.6 °F - 32.0 °F 87% 29.79 in 6.0 mi Calm Calm - N/A   Overcast
4:55 AM 35.6 °F - 33.8 °F 93% 29.79 in 3.0 mi Calm Calm - N/A   Overcast
5:15 AM 33.8 °F - 32.0 °F 93% 29.79 in 4.0 mi Calm Calm - 0.01 in   Overcast
5:35 AM 35.6 °F - 33.8 °F 93% 29.79 in 10.0 mi Calm Calm - 0.01 in   Overcast
5:55 AM 35.6 °F - 32.0 °F 87% 29.79 in 6.0 mi Calm Calm - 0.01 in   Overcast
6:15 AM 33.8 °F - 32.0 °F 93% 29.79 in 5.0 mi Calm Calm - N/A   Overcast
6:35 AM 35.6 °F - 32.0 °F 87% 29.80 in 7.0 mi Calm Calm - N/A   Overcast
6:55 AM 35.6 °F - 32.0 °F 87% 29.80 in 5.0 mi Calm Calm - N/A   Overcast
7:15 AM 35.6 °F - 32.0 °F 87% 29.80 in 3.0 mi Calm Calm - 0.01 in   Overcast
7:35 AM 33.8 °F - 32.0 °F 93% 29.81 in 3.0 mi Calm Calm - 0.02 in   Overcast
7:55 AM 33.8 °F - 32.0 °F 93% 29.81 in 2.5 mi Calm Calm - 0.03 in   Overcast
8:15 AM 33.8 °F - 32.0 °F 93% 29.81 in 3.0 mi Calm Calm - N/A   Overcast
8:35 AM 35.6 °F - 32.0 °F 87% 29.82 in 8.0 mi Calm Calm - N/A   Overcast
8:55 AM 35.6 °F - 32.0 °F 87% 29.82 in 9.0 mi Calm Calm - N/A   Mostly Cloudy
9:15 AM 35.6 °F - 33.8 °F 93% 29.83 in 10.0 mi Calm Calm - N/A   Overcast
9:35 AM 37.4 °F - 33.8 °F 87% 29.83 in 10.0 mi Calm Calm - N/A   Overcast
9:55 AM 37.4 °F - 35.6 °F 93% 29.83 in 10.0 mi Calm Calm - N/A   Overcast
10:15 AM 37.4 °F - 37.4 °F 100% 29.84 in 9.0 mi Calm Calm - N/A   Overcast
10:35 AM 39.2 °F 35.0 °F 35.6 °F 87% 29.84 in 10.0 mi NNE 5.8 mph - N/A   Overcast
10:55 AM 41.0 °F 39.0 °F 35.6 °F 81% 29.84 in 10.0 mi NE 3.5 mph - N/A   Overcast
11:15 AM 41.0 °F - 37.4 °F 87% 29.83 in 6.0 mi Calm Calm - N/A   Overcast
11:35 AM 41.0 °F - 37.4 °F 87% 29.83 in 5.0 mi Calm Calm - 0.01 in   Mostly Cloudy
11:55 AM 41.0 °F 39.0 °F 37.4 °F 87% 29.83 in 10.0 mi North 3.5 mph - 0.01 in   Overcast
12:15 PM 41.0 °F 39.0 °F 37.4 °F 87% 29.83 in 10.0 mi NE 3.5 mph - N/A   Overcast
12:35 PM 42.8 °F - 37.4 °F 81% 29.83 in 8.0 mi Calm Calm - N/A   Mostly Cloudy
12:55 PM 44.6 °F 43.1 °F 37.4 °F 76% 29.83 in 10.0 mi ESE 3.5 mph - N/A   Scattered Clouds
1:15 PM 44.6 °F - 35.6 °F 71% 29.82 in 10.0 mi Calm Calm - N/A   Scattered Clouds
1:35 PM 44.6 °F 41.4 °F 35.6 °F 71% 29.82 in 10.0 mi NE 5.8 mph - N/A   Mostly Cloudy
1:55 PM 44.6 °F 43.1 °F 35.6 °F 71% 29.82 in 10.0 mi SE 3.5 mph - N/A   Mostly Cloudy
2:15 PM 44.6 °F 43.1 °F 35.6 °F 71% 29.82 in 10.0 mi ENE 3.5 mph - N/A   Mostly Cloudy
2:35 PM 44.6 °F - 37.4 °F 76% 29.82 in 5.0 mi Calm Calm - N/A   Scattered Clouds
2:55 PM 44.6 °F 42.2 °F 35.6 °F 71% 29.81 in 10.0 mi ESE 4.6 mph - N/A   Scattered Clouds
3:15 PM 46.4 °F 45.2 °F 35.6 °F 66% 29.81 in 10.0 mi ENE 3.5 mph - N/A   Scattered Clouds
3:35 PM 46.4 °F 45.2 °F 33.8 °F 62% 29.80 in 10.0 mi ENE 3.5 mph - N/A   Mostly Cloudy
3:55 PM 44.6 °F 43.1 °F 35.6 °F 71% 29.80 in 10.0 mi SE 3.5 mph - N/A   Mostly Cloudy
4:15 PM 42.8 °F - 37.4 °F 81% 29.81 in 8.0 mi Calm Calm - N/A   Partly Cloudy
4:35 PM 44.6 °F 43.1 °F 37.4 °F 76% 29.81 in 10.0 mi ENE 3.5 mph - N/A   Partly Cloudy
4:55 PM 44.6 °F - 35.6 °F 71% 29.81 in 10.0 mi Calm Calm - N/A   Mostly Cloudy
5:15 PM 44.6 °F - 35.6 °F 71% 29.81 in 9.0 mi Calm Calm - N/A   Mostly Cloudy
5:35 PM 44.6 °F 43.1 °F 35.6 °F 71% 29.81 in 10.0 mi ENE 3.5 mph - N/A   Mostly Cloudy
5:55 PM 42.8 °F - 35.6 °F 76% 29.81 in 10.0 mi Calm Calm - N/A   Overcast
6:15 PM 42.8 °F 38.6 °F 35.6 °F 76% 29.82 in 10.0 mi NNE 6.9 mph - N/A   Overcast
6:35 PM 42.8 °F 38.6 °F 35.6 °F 76% 29.82 in 10.0 mi NNE 6.9 mph - N/A   Overcast
6:55 PM 41.0 °F 36.4 °F 35.6 °F 81% 29.82 in 10.0 mi NE 6.9 mph - N/A   Overcast
7:15 PM 41.0 °F - 35.6 °F 81% 29.82 in 9.0 mi Calm Calm - N/A   Overcast
7:35 PM 41.0 °F - 35.6 °F 81% 29.83 in 9.0 mi Calm Calm - N/A   Overcast
7:55 PM 41.0 °F 38.0 °F 35.6 °F 81% 29.83 in 10.0 mi NE 4.6 mph - N/A   Overcast
8:15 PM 39.2 °F 37.0 °F 35.6 °F 87% 29.84 in 9.0 mi NE 3.5 mph - N/A   Overcast
8:35 PM 39.2 °F - 35.6 °F 87% 29.84 in 10.0 mi Calm Calm - N/A   Overcast
8:55 PM 39.2 °F 37.0 °F 35.6 °F 87% 29.85 in 10.0 mi ENE 3.5 mph - N/A   Overcast
9:15 PM 39.2 °F - 35.6 °F 87% 29.86 in 10.0 mi Calm Calm - N/A   Overcast
9:35 PM 39.2 °F - 35.6 °F 87% 29.87 in 10.0 mi Calm Calm - N/A   Overcast
9:55 PM 39.2 °F - 35.6 °F 87% 29.87 in 10.0 mi Calm Calm - N/A   Overcast
10:15 PM 39.2 °F - 35.6 °F 87% 29.87 in 10.0 mi Calm Calm - N/A   Overcast
10:35 PM 37.4 °F - 35.6 °F 93% 29.88 in 10.0 mi Calm Calm - N/A   Overcast
10:55 PM 37.4 °F - 35.6 °F 93% 29.88 in 10.0 mi Calm Calm - N/A   Overcast
11:15 PM 37.4 °F - 35.6 °F 93% 29.88 in 10.0 mi Calm Calm - N/A   Mostly Cloudy
11:35 PM 37.4 °F 34.9 °F 35.6 °F 93% 29.89 in 10.0 mi North 3.5 mph - N/A   Overcast
11:55 PM 37.4 °F - 35.6 °F 93% 29.89 in 10.0 mi Calm Calm - N/A   Scattered Clouds